Temp
-15 -15 -15 -14 -14 -14 -14 -14 -13 -13 -13 -13 -13 -12 -12 -12 -11 -11 -11 -11 -11 -11 -11 -11 -11 -11 -11 -11 -10 -10 -10 -10 -10 -11 -10 -10 -10 -10 -10 -10 -10 -10 -10
-16 -16 -16 -16 -16 -15 -15 -15 -15 -14 -14 -13 -13 -13 -13 -12 -12 -11 -11 -11 -11 -11 -11 -11 -11 -11 -11 -11 -11 -11 -10 -10 -10 -10 -11 -11 -11 -11 -11 -11 -11 -11 -11
-16 -16 -16 -16 -16 -16 -16 -16 -16 -16 -16 -15 -14 -13 -13 -13 -12 -12 -12 -12 -11 -11 -11 -11 -11 -11 -11 -11 -11 -11 -11 -11 -10 -10 -11 -11 -11 -11 -11 -11 -11 -11 -11
-16 -16 -16 -16 -16 -16 -16 -16 -16 -16 -16 -16 -16 -15 -15 -14 -13 -13 -13 -12 -12 -12 -12 -11 -11 -11 -11 -11 -11 -11 -11 -11 -11 -10 -10 -11 -11 -11 -11 -11 -11 -11 -11
-17 -16 -16 -16 -16 -16 -16 -16 -16 -16 -16 -16 -16 -16 -16 -15 -14 -14 -14 -13 -13 -12 -12 -12 -12 -11 -11 -11 -11 -11 -11 -11 -11 -11 -10 -11 -11 -11 -11 -11 -11 -11 -11
-17 -17 -17 -17 -17 -17 -17 -16 -16 -16 -16 -16 -16 -16 -16 -16 -15 -15 -15 -14 -14 -13 -13 -12 -12 -12 -12 -11 -11 -11 -11 -11 -11 -11 -11 -10 -11 -11 -11 -11 -11 -11 -11
-18 -18 -18 -18 -17 -17 -17 -17 -17 -17 -16 -16 -16 -16 -16 -16 -15 -15 -15 -15 -15 -14 -14 -14 -13 -13 -12 -12 -12 -12 -11 -11 -11 -11 -11 -11 -10 -11 -11 -11 -11 -11 -11
-18 -18 -18 -18 -18 -18 -18 -17 -17 -17 -17 -17 -17 -17 -16 -16 -16 -15 -15 -15 -15 -15 -15 -15 -14 -14 -14 -13 -13 -13 -12 -12 -12 -11 -11 -11 -11 -11 -11 -11 -11 -11 -10
-19 -19 -19 -19 -19 -18 -18 -18 -18 -18 -17 -17 -17 -17 -17 -17 -16 -16 -16 -16 -16 -15 -15 -15 -15 -14 -14 -14 -14 -13 -13 -13 -13 -12 -12 -12 -12 -12 -11 -11 -11 -11 -11
-20 -19 -19 -19 -19 -19 -19 -18 -18 -18 -18 -18 -18 -17 -17 -17 -17 -17 -16 -16 -16 -16 -15 -16 -15 -15 -15 -15 -14 -14 -14 -14 -13 -13 -13 -13 -12 -12 -12 -12 -12 -12 -11
-20 -20 -20 -20 -20 -20 -19 -19 -19 -19 -18 -18 -18 -18 -18 -17 -17 -17 -17 -17 -16 -16 -16 -16 -16 -15 -15 -15 -15 -15 -14 -14 -14 -14 -14 -14 -13 -13 -13 -13 -13 -12 -12
-22 -21 -21 -21 -20 -20 -20 -20 -19 -19 -19 -19 -19 -18 -18 -18 -18 -17 -17 -17 -17 -17 -16 -16 -16 -16 -16 -15 -15 -15 -15 -14 -14 -14 -14 -14 -14 -14 -14 -13 -13 -13 -13
-25 -24 -23 -23 -22 -22 -21 -21 -21 -20 -20 -20 -20 -19 -19 -19 -18 -18 -18 -18 -17 -17 -17 -17 -17 -17 -16 -16 -16 -16 -16 -15 -15 -14 -14 -14 -14 -14 -14 -14 -14 -14 -13
-28 -27 -27 -26 -25 -24 -24 -23 -23 -22 -22 -21 -21 -21 -20 -20 -19 -19 -19 -19 -18 -18 -18 -18 -17 -17 -17 -17 -17 -16 -16 -16 -16 -16 -16 -15 -15 -15 -15 -14 -14 -14 -14
-29 -29 -29 -29 -29 -29 -28 -28 -27 -26 -25 -24 -23 -23 -22 -22 -21 -21 -20 -20 -19 -19 -19 -18 -18 -18 -18 -17 -17 -17 -17 -17 -17 -16 -16 -16 -16 -16 -16 -15 -15 -15 -15
-30 -31 -31 -30 -30 -30 -30 -29 -29 -29 -28 -28 -28 -27 -26 -26 -25 -24 -24 -23 -23 -22 -22 -21 -21 -20 -20 -19 -19 -19 -18 -18 -18 -17 -17 -17 -17 -16 -16 -16 -16 -16 -15
-31 -30 -30 -30 -30 -30 -30 -29 -29 -29 -29 -28 -28 -28 -27 -27 -26 -26 -25 -25 -25 -25 -24 -24 -24 -23 -23 -23 -22 -22 -22 -22 -21 -20 -19 -19 -18 -18 -17 -17 -17 -17 -16
-31 -30 -30 -30 -30 -30 -30 -30 -29 -29 -29 -29 -28 -28 -28 -27 -27 -27 -27 -26 -26 -26 -25 -25 -25 -24 -24 -24 -24 -24 -23 -23 -23 -23 -23 -23 -22 -22 -21 -21 -20 -19 -18
-30 -30 -30 -30 -30 -30 -30 -30 -29 -29 -29 -29 -29 -28 -28 -28 -28 -27 -27 -26 -26 -26 -26 -25 -25 -25 -25 -25 -24 -24 -24 -24 -24 -24 -24 -24 -24 -24 -24 -23 -23 -23 -22
-30 -30 -30 -30 -30 -30 -30 -30 -30 -30 -30 -30 -30 -30 -30 -30 -30 -29 -29 -28 -28 -27 -26 -26 -25 -25 -25 -25 -25 -24 -24 -25 -24 -24 -24 -24 -24 -24 -24 -24 -24 -24 -24
-30 -30 -30 -30 -30 -30 -30 -30 -30 -30 -31 -31 -31 -31 -31 -31 -31 -31 -30 -30 -30 -29 -29 -28 -27 -27 -26 -26 -25 -25 -25 -25 -24 -24 -24 -24 -24 -24 -24 -24 -24 -24 -24
-30 -30 -30 -30 -30 -30 -30 -30 -31 -31 -32 -32 -32 -32 -32 -32 -32 -32 -32 -32 -32 -32 -31 -31 -31 -30 -30 -29 -29 -29 -28 -28 -28 -27 -27 -27 -26 -26 -25 -25 -25 -24 -24
-30 -30 -30 -31 -31 -31 -31 -31 -32 -32 -32 -32 -32 -32 -32 -32 -33 -32 -32 -33 -33 -33 -33 -33 -32 -32 -32 -32 -31 -31 -31 -30 -30 -30 -30 -30 -30 -30 -29 -29 -28 -27 -27
-30 -31 -31 -31 -31 -31 -31 -32 -32 -32 -32 -32 -32 -32 -33 -33 -33 -33 -33 -33 -33 -33 -33 -33 -33 -33 -32 -32 -32 -32 -32 -31 -31 -31 -31 -30 -30 -30 -30 -30 -30 -30 -29
-31 -31 -31 -31 -31 -31 -32 -32 -32 -32 -32 -32 -33 -33 -33 -33 -33 -33 -34 -34 -34 -34 -34 -34 -34 -33 -33 -33 -33 -33 -33 -32 -32 -32 -32 -31 -31 -31 -31 -31 -31 -30 -30
-31 -31 -31 -31 -31 -32 -32 -32 -32 -32 -32 -32 -33 -33 -33 -33 -34 -34 -34 -34 -34 -34 -34 -34 -34 -34 -34 -33 -33 -33 -33 -33 -33 -33 -32 -32 -32 -32 -31 -31 -31 -31 -31
Height
5749 5748 5747 5747 5747 5746 5746 5747 5748 5748 5749 5751 5753 5754 5757 5759 5762 5764 5766 5768 5770 5771 5773 5775 5776 5777 5779 5781 5782 5783 5784 5786 5789 5790 5790 5791 5795 5796 5799 5802 5805 5808 5811
5739 5738 5737 5737 5737 5737 5736 5736 5737 5737 5738 5739 5740 5742 5743 5745 5747 5750 5753 5755 5757 5758 5760 5762 5764 5765 5767 5769 5770 5772 5773 5774 5776 5780 5779 5781 5782 5784 5786 5789 5791 5794 5798
5727 5726 5726 5725 5725 5725 5725 5726 5725 5725 5726 5726 5727 5728 5729 5731 5733 5735 5737 5740 5742 5745 5747 5749 5750 5752 5754 5755 5757 5759 5761 5762 5764 5767 5770 5770 5771 5772 5774 5776 5778 5781 5784
5712 5712 5712 5712 5712 5712 5712 5712 5713 5713 5713 5714 5714 5715 5716 5716 5718 5720 5722 5725 5727 5729 5731 5734 5736 5738 5740 5741 5743 5746 5747 5749 5751 5753 5756 5758 5760 5761 5761 5763 5765 5766 5768
5697 5697 5697 5697 5697 5697 5697 5698 5698 5699 5699 5700 5701 5701 5702 5702 5703 5706 5707 5709 5711 5713 5715 5717 5719 5722 5724 5726 5728 5730 5732 5734 5736 5739 5741 5742 5745 5746 5747 5748 5750 5753 5754
5679 5679 5680 5681 5680 5680 5681 5681 5682 5683 5683 5684 5685 5686 5687 5687 5688 5690 5692 5694 5694 5696 5698 5700 5702 5704 5706 5708 5712 5715 5716 5717 5719 5721 5724 5725 5728 5729 5730 5732 5734 5736 5740
5660 5661 5661 5661 5662 5663 5663 5664 5664 5665 5666 5667 5668 5669 5670 5670 5672 5674 5676 5678 5679 5679 5680 5682 5684 5685 5688 5691 5693 5694 5697 5699 5701 5702 5705 5707 5708 5709 5712 5715 5717 5719 5722
5642 5643 5643 5643 5643 5644 5644 5645 5646 5647 5647 5649 5650 5651 5652 5652 5654 5659 5661 5660 5662 5663 5665 5666 5666 5667 5667 5671 5674 5675 5677 5679 5681 5683 5686 5689 5689 5690 5690 5693 5696 5700 5703
5623 5623 5624 5624 5625 5625 5625 5626 5626 5627 5628 5629 5631 5631 5632 5633 5637 5640 5642 5643 5644 5646 5648 5648 5649 5649 5649 5654 5654 5655 5657 5659 5659 5661 5665 5667 5668 5669 5668 5669 5674 5676 5682
5603 5603 5603 5604 5605 5605 5607 5607 5608 5609 5610 5611 5611 5611 5613 5616 5618 5619 5622 5623 5624 5627 5628 5629 5629 5631 5633 5633 5634 5635 5637 5638 5640 5643 5644 5645 5646 5648 5648 5648 5650 5653 5656
5582 5583 5583 5583 5584 5585 5586 5588 5589 5590 5591 5592 5593 5594 5595 5597 5598 5599 5601 5602 5603 5605 5606 5607 5609 5611 5613 5614 5614 5615 5617 5620 5623 5621 5623 5624 5625 5626 5627 5627 5628 5630 5633
5560 5561 5562 5562 5563 5564 5566 5568 5570 5571 5572 5573 5574 5575 5577 5578 5579 5580 5582 5582 5584 5585 5586 5586 5588 5588 5590 5591 5592 5593 5595 5596 5598 5600 5602 5602 5603 5604 5604 5605 5607 5608 5610
5539 5540 5541 5541 5542 5544 5545 5547 5549 5551 5553 5554 5555 5557 5558 5559 5560 5560 5562 5563 5564 5565 5566 5566 5567 5567 5569 5569 5569 5570 5571 5572 5573 5575 5577 5579 5580 5580 5582 5582 5584 5584 5586
5523 5523 5523 5523 5524 5525 5526 5528 5530 5532 5533 5535 5536 5537 5539 5540 5541 5541 5542 5542 5543 5544 5545 5545 5546 5546 5547 5548 5548 5548 5548 5549 5550 5550 5551 5553 5554 5555 5557 5557 5559 5559 5560
5514 5514 5514 5514 5514 5514 5514 5514 5515 5515 5516 5517 5518 5519 5520 5521 5521 5522 5522 5522 5523 5523 5524 5523 5524 5524 5524 5524 5524 5525 5525 5525 5525 5525 5526 5527 5528 5529 5530 5530 5531 5533 5534
5509 5510 5511 5512 5512 5511 5510 5510 5509 5509 5508 5507 5506 5506 5506 5505 5505 5505 5504 5504 5503 5503 5503 5503 5502 5502 5501 5501 5500 5499 5499 5499 5499 5499 5498 5499 5500 5501 5502 5501 5501 5503 5506
5508 5509 5509 5509 5508 5508 5507 5506 5504 5503 5502 5501 5499 5498 5496 5495 5494 5493 5492 5491 5489 5488 5487 5486 5484 5484 5482 5481 5479 5478 5476 5474 5474 5473 5472 5472 5472 5472 5471 5472 5472 5472 5475
5506 5506 5506 5505 5504 5503 5501 5500 5498 5497 5495 5493 5491 5490 5487 5486 5483 5481 5479 5477 5476 5473 5472 5470 5468 5467 5465 5463 5461 5460 5458 5456 5453 5451 5450 5448 5447 5447 5446 5444 5443 5442 5443
5502 5502 5502 5501 5500 5498 5497 5494 5492 5489 5486 5484 5482 5480 5477 5475 5472 5470 5468 5465 5462 5460 5457 5454 5452 5450 5448 5445 5443 5440 5438 5436 5435 5433 5431 5428 5426 5425 5424 5422 5420 5418 5416
5497 5497 5497 5496 5495 5493 5491 5488 5485 5482 5479 5476 5474 5471 5468 5465 5462 5458 5455 5451 5447 5443 5440 5437 5434 5431 5428 5426 5423 5420 5418 5414 5413 5411 5408 5407 5405 5403 5401 5400 5399 5397 5396
5492 5491 5491 5490 5488 5486 5483 5480 5477 5474 5472 5469 5466 5463 5459 5455 5451 5447 5442 5437 5432 5427 5423 5418 5414 5410 5406 5403 5400 5396 5393 5390 5387 5385 5383 5381 5379 5379 5376 5375 5373 5372 5372
5486 5485 5484 5483 5481 5478 5475 5472 5469 5466 5464 5461 5458 5454 5450 5445 5440 5435 5429 5424 5418 5412 5406 5401 5395 5390 5385 5381 5377 5373 5370 5366 5363 5360 5357 5354 5351 5349 5347 5346 5344 5344 5344
5479 5478 5476 5474 5472 5469 5466 5463 5460 5458 5455 5452 5448 5444 5439 5434 5428 5423 5417 5411 5405 5399 5392 5386 5380 5374 5369 5364 5359 5354 5351 5347 5343 5340 5338 5334 5330 5326 5322 5320 5317 5317 5316
5471 5469 5468 5466 5464 5461 5457 5454 5452 5449 5446 5442 5438 5433 5429 5424 5418 5412 5407 5401 5395 5388 5381 5373 5366 5359 5353 5348 5343 5338 5333 5328 5324 5321 5318 5315 5311 5307 5304 5300 5297 5294 5292
5463 5461 5459 5457 5454 5451 5448 5445 5442 5439 5436 5432 5428 5423 5418 5412 5407 5400 5394 5388 5381 5375 5368 5361 5353 5346 5339 5334 5329 5324 5319 5314 5309 5305 5302 5299 5295 5290 5286 5282 5278 5275 5273
5454 5452 5450 5447 5444 5441 5438 5435 5431 5428 5424 5420 5415 5410 5405 5399 5393 5387 5380 5374 5367 5360 5353 5346 5338 5331 5325 5319 5314 5309 5305 5300 5296 5292 5287 5283 5279 5275 5270 5266 5262 5258 5255
Wind_Speed
38 39 40 41 41 41 42 43 44 45 46 46 48 48 50 52 52 51 48 45 44 44 45 45 45 44 43 42 42 44 45 44 44 42 48 51 53 55 56 57 57 56 56
43 44 44 44 44 44 44 44 44 45 46 47 48 50 50 50 54 55 54 52 49 48 47 46 47 48 48 47 46 44 45 48 47 44 43 46 49 52 55 56 57 57 56
48 49 50 50 50 50 49 49 49 48 48 48 48 49 51 52 52 54 57 57 56 54 52 51 49 50 50 50 51 49 49 48 48 50 47 47 48 50 52 55 56 57 57
53 54 55 56 56 57 56 55 54 54 54 53 53 52 52 53 53 54 55 57 59 59 58 56 56 54 53 52 53 53 53 53 52 51 51 51 53 54 55 56 57 58 60
58 58 58 59 60 60 60 60 59 58 58 57 56 56 56 56 57 55 55 55 57 59 60 60 60 59 59 58 57 56 55 55 55 56 57 56 55 56 60 62 61 61 62
59 61 62 61 62 62 61 63 63 63 62 61 61 60 58 58 58 57 56 56 57 58 59 61 61 62 62 63 62 61 61 60 60 59 59 60 61 62 62 62 63 65 66
61 60 60 62 63 65 64 63 63 62 62 62 61 61 62 63 63 62 60 58 58 58 59 60 61 62 63 64 64 64 65 65 65 65 64 65 65 65 66 66 67 67 66
65 63 61 60 61 62 63 65 67 66 65 64 67 68 65 61 60 60 62 64 63 62 61 60 61 62 63 63 63 64 65 66 67 69 69 69 70 70 71 71 71 70 69
67 67 66 64 62 61 60 60 61 62 64 65 66 66 69 71 72 69 64 62 60 61 63 64 65 65 66 65 66 66 66 66 68 69 70 70 70 71 74 75 74 75 74
69 69 69 67 65 64 62 62 61 59 59 59 60 61 62 63 64 67 70 73 72 69 67 65 64 66 67 68 69 70 70 70 70 70 70 71 72 72 73 76 76 76 76
71 70 70 70 69 66 64 63 62 61 61 60 60 60 59 58 59 60 61 62 64 68 73 74 71 71 70 69 70 73 74 73 73 74 74 74 75 76 76 76 76 77 77
70 71 71 70 70 69 67 65 63 61 60 59 59 59 59 60 61 61 61 62 63 63 65 67 70 72 74 75 74 75 76 76 77 78 78 79 79 80 81 81 81 81 80
55 59 62 65 66 67 67 65 64 62 61 60 59 59 58 59 60 61 62 63 64 66 66 67 68 68 70 71 73 74 75 77 78 79 80 81 82 84 84 85 86 87 87
36 37 39 42 44 46 49 51 52 53 54 55 55 56 57 58 59 60 61 63 64 65 66 68 70 72 73 73 74 76 76 77 78 79 80 80 81 82 83 84 85 86 88
24 20 15 13 14 16 19 23 28 33 37 40 43 46 49 51 53 56 58 61 63 64 66 68 70 72 74 76 77 78 79 81 82 84 85 85 86 86 86 87 87 87 87
11 9 5 1 4 7 9 12 15 18 21 24 27 31 35 39 42 45 47 50 53 56 59 62 65 68 70 72 74 76 79 80 82 84 86 87 89 90 91 92 93 93 92
8 7 5 7 9 11 13 15 16 17 20 22 25 28 30 33 35 38 42 45 46 48 49 52 54 55 57 60 63 66 67 69 72 76 81 84 88 90 91 93 94 96 96
9 9 9 10 11 12 15 18 19 19 21 23 26 28 31 33 35 37 39 41 43 44 45 47 49 50 51 53 55 56 58 59 61 63 64 66 69 72 75 79 85 90 95
15 11 15 15 15 18 22 25 26 26 26 25 26 27 29 30 32 35 37 40 43 45 47 49 51 52 54 56 57 59 60 60 60 60 61 62 62 63 63 65 68 72 74
16 17 19 19 20 23 27 29 30 29 27 25 25 27 30 32 35 38 40 42 45 47 49 52 54 57 59 61 63 65 67 69 70 71 71 71 71 71 71 71 69 67 67
18 19 21 24 25 28 31 32 30 28 25 25 28 31 35 37 40 42 44 47 49 51 54 56 59 60 61 62 64 66 68 70 72 73 75 77 77 76 76 76 76 76 75
19 23 26 27 29 32 34 33 28 24 25 29 32 34 37 40 42 44 46 48 50 53 55 53 52 52 53 54 54 55 57 59 60 62 65 68 71 73 75 76 77 78 79
26 29 28 30 32 34 34 32 27 27 29 32 35 38 42 44 46 48 50 50 51 55 56 54 51 50 50 49 49 49 50 50 51 52 52 53 54 56 59 63 67 71 72
29 29 30 32 34 34 34 32 31 32 33 35 38 41 45 48 50 51 51 51 52 52 57 57 54 52 50 49 49 49 49 49 49 48 48 47 47 49 50 52 54 55 62
28 30 31 34 36 36 35 37 36 35 38 40 43 46 48 50 52 54 55 55 56 55 56 59 56 52 49 47 46 46 45 45 45 46 46 46 46 47 47 48 49 51 51
29 32 35 38 36 38 40 40 38 40 43 45 48 51 52 54 55 57 58 60 60 59 58 61 58 53 49 47 46 45 46 46 46 46 47 47 48 48 48 48 47 47 49
Wind_Direction
268 269 268 268 267 266 265 264 263 262 261 259 257 258 257 255 255 254 253 252 252 255 256 254 252 252 253 254 254 253 252 252 250 250 250 249 247 247 247 249 250 251 253
263 264 264 265 265 266 268 267 266 265 264 263 260 259 258 258 256 255 256 255 254 253 254 257 257 256 254 255 255 255 255 254 252 251 252 252 251 249 249 249 249 251 252
262 261 261 262 263 263 263 265 265 265 265 266 265 263 262 259 258 257 256 256 256 256 255 255 256 258 258 257 257 256 257 257 256 254 252 252 254 254 253 254 254 254 255
260 259 259 260 261 262 262 262 262 263 264 263 264 264 264 264 262 261 259 257 256 257 257 256 256 256 257 259 260 258 258 257 257 257 256 254 254 254 255 255 256 258 259
265 263 261 261 260 260 260 261 262 262 263 264 264 264 263 263 263 263 262 262 260 259 258 258 258 257 257 257 257 259 260 261 260 259 259 258 257 255 255 256 256 256 259
269 267 265 264 264 263 261 260 260 260 262 263 264 264 264 263 262 263 262 262 263 262 261 260 259 259 259 258 258 258 259 259 260 260 260 261 260 258 257 256 256 257 258
271 269 267 266 265 264 263 263 262 261 260 261 263 263 263 264 263 263 263 263 262 263 263 262 262 262 261 261 261 260 260 260 260 260 260 261 261 261 260 260 259 258 259
272 272 270 268 267 266 265 265 264 264 264 262 261 261 261 263 263 264 263 263 264 263 262 263 263 263 262 261 261 261 261 262 262 261 261 261 262 262 263 262 261 262 262
270 271 271 270 268 267 267 267 266 265 265 266 265 263 263 263 260 261 262 263 263 263 263 262 262 261 262 263 263 262 261 260 260 261 262 263 263 262 263 263 263 263 262
270 270 270 270 269 268 267 266 266 266 265 265 266 265 265 265 265 264 262 262 264 264 263 263 263 262 261 261 261 261 261 261 262 262 261 260 261 262 263 264 264 265 265
270 269 269 270 270 269 268 267 266 267 266 266 266 266 266 265 265 265 264 263 262 262 263 265 265 264 264 263 263 262 262 261 261 261 262 263 263 263 262 262 263 264 264
271 271 270 270 270 271 270 269 268 266 266 266 266 266 266 266 266 266 266 266 265 264 263 263 263 263 264 264 263 263 263 263 262 261 261 261 261 262 263 264 264 264 264
276 273 272 272 271 270 271 271 271 270 269 268 267 267 266 266 265 265 265 265 265 265 265 264 264 263 262 263 263 263 262 262 262 261 261 260 260 260 261 262 263 264 264
279 273 269 268 268 268 269 269 269 268 267 267 267 268 267 267 266 265 265 264 263 263 263 263 264 265 265 264 264 264 264 264 264 264 264 263 262 262 261 261 261 261 262
284 275 258 242 251 255 260 261 262 261 260 260 261 262 262 261 261 262 263 264 264 264 264 265 265 265 265 265 265 265 265 265 265 265 265 265 265 265 265 265 264 264 263
235 162 170 244 312 305 290 278 273 269 266 265 264 263 261 262 262 262 263 263 264 264 264 265 266 266 266 266 266 266 266 266 266 266 265 265 265 265 265 265 265 264 264
162 195 236 297 312 314 306 297 291 285 280 277 276 275 275 274 271 270 270 270 270 270 270 270 270 270 270 270 270 270 270 271 270 269 268 267 266 265 265 265 265 265 265
233 257 277 296 308 321 322 316 310 302 292 286 282 281 280 280 281 281 280 279 279 278 276 274 273 272 271 271 271 271 271 271 272 272 272 271 270 269 268 268 268 267 266
258 290 291 292 309 321 321 320 316 311 306 301 297 293 292 290 289 286 284 281 280 279 278 278 277 277 277 276 276 276 275 274 273 273 273 273 273 273 272 272 270 269 269
277 291 287 292 305 311 314 317 315 312 307 305 305 306 307 306 304 302 300 297 294 291 287 284 282 281 279 278 277 276 276 275 275 274 274 274 274 274 273 272 271 271 271
289 289 290 295 301 307 311 315 312 306 304 306 309 312 312 313 313 313 312 311 309 306 302 299 296 292 289 286 284 282 279 278 276 274 273 273 272 271 271 271 271 270 269
289 289 291 292 297 305 310 311 305 300 305 310 313 315 317 316 316 317 318 318 317 318 315 310 304 300 296 292 289 287 285 283 281 280 279 277 276 274 272 270 268 266 265
281 287 288 290 299 307 310 307 298 301 306 309 313 316 318 319 320 319 319 318 319 322 322 315 310 305 301 298 295 293 290 288 286 285 284 283 282 280 277 274 270 267 266
278 284 290 293 300 303 306 301 296 297 302 305 309 312 314 316 317 317 317 316 315 318 322 319 313 308 304 300 298 296 294 293 291 290 289 289 288 285 283 280 276 275 269
283 287 288 295 297 297 299 299 293 291 296 300 304 307 309 310 311 314 315 315 316 314 318 320 315 309 305 302 300 298 297 295 294 294 292 292 291 290 289 289 285 278 278
288 293 293 296 295 297 297 297 292 291 294 299 303 305 305 306 308 309 311 312 313 313 314 318 315 309 304 302 301 300 298 296 294 293 292 292 292 292 292 291 291 289 283